Regional Weather Roundup
Issued by NWS

Home | Current Version | Previous Version | Graphics & Text | Print | Product List | Glossary On
Versions: 1 2 3 4 5 6 7 8 9 10 11 12 13 14 15 16 17 18 19 20 21 22 23 24 25 26 27 28 29 30 31 32 33 34 35 36 37 38 39 40 41 42 43 44 45 46 47 48 49 50
000
ASUS43 KFSD 190310
RWRSD

WEATHER ROUNDUP FOR SOUTH DAKOTA
NATIONAL WEATHER SERVICE SIOUX FALLS SD
1000 PM CDT MON SEP 18 2017

NOTE: "FAIR" INDICATES FEW OR NO CLOUDS BELOW 12,000 FEET WITH NO
SIGNIFICANT WEATHER AND/OR OBSTRUCTIONS TO VISIBILITY.


SDZ001>005-009-010-012>017-190400-
NORTHWEST AND NORTH CENTRAL SOUTH DAKOTA

CITY           SKY/WX    TMP DP  RH WIND       PRES   REMARKS
BUFFALO          N/A     64  40  41 E15       29.64S
FAITH            N/A     64  45  49 SE20      29.72
MOBRIDGE       CLEAR     63  47  55 E13       29.74S
$$

SDZ012>016-024>037-041>051-057-063-072>074-190400-
SOUTHWEST AND SOUTH CENTRAL SOUTH DAKOTA

CITY           SKY/WX    TMP DP  RH WIND       PRES   REMARKS
RAPID CTY ARPT CLEAR     59  39  47 CALM      29.73S
PIERRE         PTCLDY    64  54  69 SE10      29.74S
CUSTER         CLOUDY    58  30  34 CALM      29.86S
ELLSWORTH AFB  CLOUDY    64  37  37 S5        29.72S
PHILIP         PTCLDY    63  54  72 E10       29.72F
PINE RIDGE     PTCLDY    73  42  32 S10G20    29.76F
SPEARFISH      FAIR      70  36  28 S16       29.72S
WINNER         FAIR      70  60  70 S16       29.78F
$$

SDZ004>011-016>023-039-040-190400-
NORTHEAST SOUTH DAKOTA

CITY           SKY/WX    TMP DP  RH WIND       PRES   REMARKS
ABERDEEN       MOCLDY    62  57  83 SE7       29.79S
WATERTOWN      CLEAR     61  59  93 SE7       29.85R
BROOKINGS      CLOUDY    62  60  93 SE9       29.87S
SISSETON         N/A     59  59 100 SE6       29.83S
$$

SDZ017-020-022-023-036>040-048>070-190400-
SOUTHEAST SOUTH DAKOTA

CITY           SKY/WX    TMP DP  RH WIND       PRES   REMARKS
SIOUX FALLS    CLOUDY    69  65  86 S12       29.87S
HURON          CLEAR     67  62  84 S12       29.80S
CHAMBERLAIN    PTCLDY    65  63  94 E8        29.78F
MITCHELL       CLEAR     67  62  84 SE8       29.82S
YANKTON        CLEAR     66  64  93 SE7       29.86S
$$

ABBREVIATIONS USED IN REMARKS
   TC - TEMPERATURE IN CELSIUS
  WCI - WIND CHILL INDEX
   HX - HEAT INDEX
  VSB - VISIBILITY





USA.gov is the U.S. government's official web portal to all federal, state and local government web resources and services.